EW7421 Weather Reports


Display with metric or nautical units.
time (UTC)temp
F
wind
direction
speed
MPH
gust
MPH
rain 1hr
in
rain 24hr
in
rain mn
in
humidity
%
barometer
mb
20220810120036 0 0.0 0.0 0.00 0.00 0.00 1011.3
20220810114531 0 0.0 0.0 0.00 0.00 0.00 1011.3
20220810113027 0 0.0 0.0 0.00 0.00 0.00 1011.0
20220810111525 0 0.0 0.0 0.00 0.00 0.00 1011.0
20220810110024 0 0.0 0.0 0.00 0.00 0.00 1010.8
20220810104512 0 0.0 0.0 0.00 0.00 0.00 1010.7
20220810103008 0 0.0 0.0 0.00 0.00 0.00 1010.6
20220810101508 0 0.0 0.0 0.00 0.00 0.00 1010.5
20220810100123 0 0.0 0.0 0.00 0.00 0.00 1010.1
20220810094555 0 0.0 0.0 0.00 0.00 0.00 1010.0
20220810093050 0 0.0 0.0 0.00 0.00 0.00 1009.9
20220810091556 0 0.0 0.0 0.00 0.00 0.00 1009.7
20220810090041 0 0.0 0.0 0.00 0.00 0.00 1009.4
20220810084544 0 0.0 0.0 0.00 0.00 0.00 1009.3
20220810083032 0 0.0 0.0 0.00 0.00 0.00 1009.3
20220810081542 0 0.0 0.0 0.00 0.00 0.00 1009.0
20220810080033 0 0.0 0.0 0.00 0.00 0.00 1008.9
20220810074527 0 0.0 0.0 0.00 0.00 0.00 1008.7
20220810073021 0 0.0 0.0 0.00 0.00 0.00 1008.8
20220810071510 0 0.0 0.0 0.00 0.00 0.00 1009.0
20220810070007 0 0.0 0.0 0.00 0.00 0.00 1009.1
20220810064501 0 0.0 0.0 0.00 0.00 0.00 1009.1
20220810063109 0 0.0 0.0 0.00 0.00 0.00 1009.1
20220810061602 158 220 0.0 3.0 0.00 0.00 0.00 83 1009.1
20220810060110 158 31 2.0 3.0 0.00 0.00 0.00 83 1009.3
20220810054604 0 61 0.0 3.0 0.00 0.00 0.00 1009.4
20220810053056 0 0.0 0.0 0.00 0.00 0.00 1009.4
20220810051538 158 360 2.0 2.0 0.00 0.00 0.00 1009.5
20220810050040 0 0.0 0.0 0.00 0.00 0.00 1009.8
20220810044531 158 74 0.0 3.0 0.00 0.00 0.00 89 1010.0
20220810043021 158 192 0.0 1.0 0.00 0.00 0.00 88 1010.1
20220810041516 158 263 0.0 3.0 0.00 0.00 0.00 87 1010.3
20220810040012 158 360 0.0 3.0 0.00 0.00 0.00 85 1010.2
20220810034508 158 5 0.0 3.0 0.00 0.00 0.00 84 1010.5
20220810033011 158 360 0.0 3.0 0.00 0.00 0.00 82 1010.6
20220810031605 158 47 0.0 4.0 0.00 0.00 0.00 81 1010.6
20220810030105 158 5 0.0 3.0 0.00 0.00 0.00 83 1010.6
20220810024557 158 5 0.0 3.0 0.00 0.00 0.00 88 1010.8
20220810023048 158 173 0.0 3.0 0.00 0.00 0.00 92 1010.8
20220810021540 158 5 0.0 3.0 0.00 0.00 0.00 93 1010.9
20220810020037 158 5 0.0 4.0 0.00 0.00 0.00 93 1010.7
20220810014543 158 31 0.0 4.0 0.00 0.00 0.00 93 1010.7
20220810013027 158 218 0.0 2.0 0.00 0.00 0.00 92 1010.5
20220810011528 158 9 0.0 3.0 0.00 0.00 0.00 90 1010.4
20220810010023 158 67 0.0 2.0 0.00 0.00 0.00 85 1010.4
20220810004524 158 113 0.0 3.0 0.00 0.00 0.00 84 1010.5
20220810003008 158 98 1.0 4.0 0.00 0.00 0.00 85 1010.4
20220810001508 158 182 0.0 3.0 0.00 0.00 0.00 91 1010.3
20220810000111 158 5 0.0 3.0 0.00 0.00 0.00 92 1010.2
20220809234618 158 40 0.0 3.0 0.00 0.00 0.00 93 1010.1
20220809233057 158 5 0.0 3.0 0.00 0.00 0.00 93 1009.8
20220809231604 158 10 0.0 3.0 0.00 0.00 0.00 94 1009.6
20220809230055 158 165 0.0 5.0 0.00 0.00 0.00 94 1009.6
20220809224557 158 360 0.0 4.0 0.00 0.00 0.00 94 1009.5
20220809223037 158 5 0.0 3.0 0.00 0.00 0.00 94 1009.4
20220809221533 158 5 0.0 3.0 0.00 0.00 0.00 94 1009.2
20220809220025 158 360 0.0 5.0 0.00 0.00 0.00 93 1009.0
20220809214520 158 137 0.0 3.0 0.00 0.00 0.00 93 1009.0
20220809213016 158 19 0.0 3.0 0.00 0.00 0.00 93 1008.9
20220809211513 158 24 0.0 3.0 0.00 0.00 0.00 93 1008.9
20220809210011 158 190 0.0 3.0 0.00 0.00 0.00 92 1008.7
20220809204514 158 5 0.0 3.0 0.00 0.00 0.00 92 1008.6
20220809203010 158 360 0.0 4.0 0.00 0.00 0.00 92 1008.7
20220809201507 158 39 0.0 3.0 0.00 0.00 0.00 87 1008.6
20220809200058 158 13 1.0 4.0 0.00 0.00 0.00 90 1008.7
20220809194553 158 98 0.0 3.0 0.00 0.00 0.00 84 1008.7
20220809193052 158 143 0.0 3.0 0.00 0.00 0.00 88 1008.4
20220809191545 158 360 0.0 3.0 0.00 0.00 0.00 73 1008.6
20220809190040 158 144 0.0 4.0 0.00 0.00 0.00 68 1008.8
20220809184534 158 5 0.0 3.0 0.00 0.00 0.00 75 1008.8
20220809183030 158 94 0.0 3.0 0.00 0.00 0.00 87 1008.9
20220809181528 158 217 0.0 4.0 0.00 0.00 0.00 92 1009.0
20220809180023 158 5 0.0 3.0 0.00 0.00 0.00 91 1008.9
20220809174517 158 112 0.0 3.0 0.00 0.00 0.00 84 1009.1
20220809173023 158 269 0.0 4.0 0.00 0.00 0.00 68 1009.3
20220809171511 158 29 0.0 3.0 0.00 0.00 0.00 82 1009.4
20220809170010 158 360 0.0 3.0 0.00 0.00 0.00 86 1009.7
20220809164634 158 360 0.0 3.0 0.00 0.00 0.00 88 1009.8
20220809163213 158 5 0.0 2.0 0.00 0.00 0.00 86 1010.0
20220809161625 158 5 0.0 4.0 0.00 0.00 0.00 82 1010.2
20220809160046 158 5 0.0 3.0 0.00 0.00 0.00 80 1010.4
20220809154556 158 259 0.0 4.0 0.00 0.00 0.00 83 1010.5
20220809153042 158 39 0.0 3.0 0.00 0.00 0.00 79 1010.7
20220809151547 158 19 0.0 3.0 0.00 0.00 0.00 69 1010.7
20220809150028 158 34 0.0 3.0 0.00 0.00 0.00 71 1010.9
20220809144523 158 101 0.0 3.0 0.00 0.00 0.00 77 1011.1
20220809143021 158 36 0.0 3.0 0.00 0.00 0.00 71 1011.0
20220809141515 0 0.0 0.0 0.00 0.00 0.00 1010.9
20220809140014 0 0.0 0.0 0.00 0.00 0.00 1010.8
20220809134506 0 0.0 0.0 0.00 0.00 0.00 1010.8
20220809133006 0 0.0 0.0 0.00 0.00 0.00 1010.8
20220809131557 0 0.0 0.0 0.00 0.00 0.00 1010.8
20220809130053 0 0.0 0.0 0.00 0.00 0.00 1010.6
20220809124549 0 0.0 0.0 0.00 0.00 0.00 1010.5
20220809123045 0 0.0 0.0 0.00 0.00 0.00 1010.4
20220809121539 0 0.0 0.0 0.00 0.00 0.00 1010.1